Location: Augirein
(42.9320°N, 0.9181°E)
Time: 17:40:36
(UTC+00:00)

Cosmos 841 Rocket - Pass Details

Date: 20 June 2021
Orbit: 747 x 772 km, 74.0° (Epoch: 01 August)

Event Time Altitude Azimuth Distance (km) Brightness Sun altitude
Exits shadow 02:02:59 25° 247° (WSW) 1,491 4.5 -17.7°
Maximum altitude 02:05:21 38° 297° (WNW) 1,126 4.3 -17.4°
Drops below altitude 10° 02:10:09 10° 6° (N) 2,273 6.9 -17.0°
Sets 02:12:40 0° 14° (NNE) 3,200 8.1 -16.7°
